sat.trackr.live / text

‹ back to catalog

AE3VA

NORAD 64563 · 2025-135AM

PAYLOAD ACTIVE UNKNOWN

§ Identity

Operator
Country
JPN
Launch date
2025-06-23
Launch site
AFWTR
Launch vehicle
Mass (kg)
RCS (m²)

External: N2YO · Heavens-Above · Gunter

§ Orbital elements

Epoch: 2026-05-24T21:32:13.005600Z

Period
96.20 min
Inclination
97.7648°
Eccentricity
0.0002315
Mean motion
14.96832962 rev/d
Perigee alt
575.1 km
Apogee alt
578.3 km
Semi-major
6,954.8 km
B*
4.3483e-4
RAAN
259.9475°
Arg perigee
19.1010°
Mean anomaly
341.0298°
Rev number
5,045

§ Raw data

AE3VA1 64563U 25135AM  26144.89737275  .00004925  00000+0  43483-3 0  99992 64563  97.7648 259.9475 0002315  19.1010 341.0298 14.96832962 50452

JSON: /api/v1/satellites/64563 · /tle

For live sub-satellite position, see the globe view (requires WebGL).

§ Visibility from observer

Set your observer location to see the next 7 days of passes ≥ 10°. The values pass through the URL so the page stays shareable.

No JS? Fill the form by hand. The geolocation button needs JavaScript.